Location: Del Amo
(33.8464°N, 118.2104°W)
Time: 07:13:42
(UTC+00:00)

Vanguard 3 - Pass Details

Date: 18 September 2024
Orbit: 507 x 3223 km, 33.3° (Epoch: 09 October)

Event Time Altitude Azimuth Distance (km) Brightness Sun altitude
Rises 14:34:05 0° 252° (WSW) 6,496 11.2 10.7°
Reaches altitude 10° 14:38:00 10° 252° (WSW) 5,713 10.9 11.5°
Maximum altitude 14:57:08 84° 168° (SSE) 3,227 10.5 15.4°
Drops below altitude 10° 15:15:05 10° 83° (E) 5,414 13.0 19.1°
Sets 15:18:40 0° 83° (E) 6,157 12.9 19.8°
